Year,Month,Day,Hour,Minute,Value (Times are PST for temperature in C)
2011,09,19,00,00,15.00
2011,09,19,00,01,15.00
2011,09,19,00,02,15.00
2011,09,19,00,03,15.00
2011,09,19,00,04,15.10
2011,09,19,00,05,15.10
2011,09,19,00,06,15.10
2011,09,19,00,07,15.10
2011,09,19,00,08,15.20
2011,09,19,00,09,15.20
2011,09,19,00,10,15.20
2011,09,19,00,11,15.20
2011,09,19,00,12,15.20
2011,09,19,00,13,15.20
2011,09,19,00,14,15.20
2011,09,19,00,15,15.20
2011,09,19,00,16,15.20
2011,09,19,00,17,15.20
2011,09,19,00,18,15.30
2011,09,19,00,19,15.30
2011,09,19,00,20,15.30
2011,09,19,00,21,15.30
2011,09,19,00,22,15.30
2011,09,19,00,23,15.30
2011,09,19,00,24,15.30
2011,09,19,00,25,15.30
2011,09,19,00,26,15.30
2011,09,19,00,27,15.30
2011,09,19,00,28,15.30
2011,09,19,00,29,15.30
2011,09,19,00,30,15.30
2011,09,19,00,31,15.30
2011,09,19,00,32,15.30
2011,09,19,00,33,15.30
2011,09,19,00,34,15.30
2011,09,19,00,35,15.30
2011,09,19,00,36,15.30
2011,09,19,00,37,15.30
2011,09,19,00,38,15.30
2011,09,19,00,39,15.30
2011,09,19,00,40,15.30
2011,09,19,00,41,15.30
2011,09,19,00,42,15.30
2011,09,19,00,43,15.30
2011,09,19,00,44,15.30
2011,09,19,00,45,15.30
2011,09,19,00,46,15.30
2011,09,19,00,47,15.30
2011,09,19,00,48,15.20
2011,09,19,00,49,15.20
2011,09,19,00,50,15.20
2011,09,19,00,51,15.10
2011,09,19,00,52,15.10
2011,09,19,00,53,15.10
2011,09,19,00,54,15.00
2011,09,19,00,55,15.00
2011,09,19,00,56,15.00
2011,09,19,00,57,15.00
2011,09,19,00,58,15.00
2011,09,19,00,59,15.00
2011,09,19,01,00,15.00
2011,09,19,01,01,15.00
2011,09,19,01,02,15.00
2011,09,19,01,03,15.00
2011,09,19,01,04,15.00
2011,09,19,01,05,15.00
2011,09,19,01,06,15.00
2011,09,19,01,07,15.00
2011,09,19,01,08,15.00
2011,09,19,01,09,15.00
2011,09,19,01,10,15.00
2011,09,19,01,11,15.00
2011,09,19,01,12,15.00
2011,09,19,01,13,15.00
2011,09,19,01,14,15.00
2011,09,19,01,15,15.00
2011,09,19,01,16,15.00
2011,09,19,01,17,15.00
2011,09,19,01,18,15.00
2011,09,19,01,19,15.00
2011,09,19,01,20,15.00
2011,09,19,01,21,15.00
2011,09,19,01,22,15.00
2011,09,19,01,23,15.00
2011,09,19,01,24,15.00
2011,09,19,01,25,15.00
2011,09,19,01,26,15.00
2011,09,19,01,27,15.00
2011,09,19,01,28,15.00
2011,09,19,01,29,15.00
2011,09,19,01,30,15.00
2011,09,19,01,31,15.00
2011,09,19,01,32,15.00
2011,09,19,01,33,15.00
2011,09,19,01,34,15.00
2011,09,19,01,35,15.00
2011,09,19,01,36,15.00
2011,09,19,01,37,15.00
2011,09,19,01,38,15.00
2011,09,19,01,39,15.00
2011,09,19,01,40,15.00
2011,09,19,01,41,15.00
2011,09,19,01,42,15.00
2011,09,19,01,43,15.00
2011,09,19,01,44,15.00
2011,09,19,01,45,15.00
2011,09,19,01,46,15.00
2011,09,19,01,47,15.00
2011,09,19,01,48,15.00
2011,09,19,01,49,15.00
2011,09,19,01,50,15.00
2011,09,19,01,51,15.00
2011,09,19,01,52,15.00
2011,09,19,01,53,15.00
2011,09,19,01,54,15.00
2011,09,19,01,55,15.00
2011,09,19,01,56,15.00
2011,09,19,01,57,15.00
2011,09,19,01,58,15.00
2011,09,19,01,59,15.00
2011,09,19,02,00,15.00
2011,09,19,02,01,15.00
2011,09,19,02,02,15.00
2011,09,19,02,03,15.00
2011,09,19,02,04,15.00
2011,09,19,02,05,15.00
2011,09,19,02,06,15.00
2011,09,19,02,07,15.00
2011,09,19,02,08,15.00
2011,09,19,02,09,15.00
2011,09,19,02,10,15.00
2011,09,19,02,11,15.00
2011,09,19,02,12,15.00
2011,09,19,02,13,15.00
2011,09,19,02,14,14.90
2011,09,19,02,15,14.80
2011,09,19,02,16,14.80
2011,09,19,02,17,14.80
2011,09,19,02,18,14.80
2011,09,19,02,19,14.70
2011,09,19,02,20,14.70
2011,09,19,02,21,14.60
2011,09,19,02,22,14.50
2011,09,19,02,23,14.50
2011,09,19,02,24,14.30
2011,09,19,02,25,14.20
2011,09,19,02,26,14.10
2011,09,19,02,27,14.00
2011,09,19,02,28,13.90
2011,09,19,02,29,13.90
2011,09,19,02,30,13.80
2011,09,19,02,31,13.80
2011,09,19,02,32,13.70
2011,09,19,02,33,13.70
2011,09,19,02,34,13.60
2011,09,19,02,35,13.50
2011,09,19,02,36,13.50
2011,09,19,02,37,13.40
2011,09,19,02,38,13.30
2011,09,19,02,39,13.30
2011,09,19,02,40,13.40
2011,09,19,02,41,13.50
2011,09,19,02,42,13.50
2011,09,19,02,43,13.60
2011,09,19,02,44,13.60
2011,09,19,02,45,13.70
2011,09,19,02,46,13.70
2011,09,19,02,47,13.80
2011,09,19,02,48,13.90
2011,09,19,02,49,13.90
2011,09,19,02,50,13.90
2011,09,19,02,51,13.90
2011,09,19,02,52,13.90
2011,09,19,02,53,13.80
2011,09,19,02,54,13.80
2011,09,19,02,55,13.80
2011,09,19,02,56,13.80
2011,09,19,02,57,13.80
2011,09,19,02,58,13.70
2011,09,19,02,59,13.60
2011,09,19,03,00,13.60
2011,09,19,03,01,13.50
2011,09,19,03,02,13.40
2011,09,19,03,03,13.40
2011,09,19,03,04,13.30
2011,09,19,03,05,13.20
2011,09,19,03,06,13.10
2011,09,19,03,07,13.10
2011,09,19,03,08,13.00
2011,09,19,03,09,12.90
2011,09,19,03,10,12.80
2011,09,19,03,11,12.80
2011,09,19,03,12,12.70
2011,09,19,03,13,12.70
2011,09,19,03,14,12.70
2011,09,19,03,15,12.70
2011,09,19,03,16,12.80
2011,09,19,03,17,12.80
2011,09,19,03,18,12.80
2011,09,19,03,19,12.90
2011,09,19,03,20,12.90
2011,09,19,03,21,13.00
2011,09,19,03,22,13.00
2011,09,19,03,23,13.00
2011,09,19,03,24,13.10
2011,09,19,03,25,13.10
2011,09,19,03,26,13.10
2011,09,19,03,27,13.10
2011,09,19,03,28,13.10
2011,09,19,03,29,13.10
2011,09,19,03,30,13.10
2011,09,19,03,31,13.10
2011,09,19,03,32,13.00
2011,09,19,03,33,12.90
2011,09,19,03,34,12.90
2011,09,19,03,35,12.80
2011,09,19,03,36,12.80
2011,09,19,03,37,12.70
2011,09,19,03,38,12.60
2011,09,19,03,39,12.60
2011,09,19,03,40,12.50
2011,09,19,03,41,12.40
2011,09,19,03,42,12.30
2011,09,19,03,43,12.20
2011,09,19,03,44,12.10
2011,09,19,03,45,12.00
2011,09,19,03,46,12.00
2011,09,19,03,47,11.80
2011,09,19,03,48,11.80
2011,09,19,03,49,11.70
2011,09,19,03,50,11.70
2011,09,19,03,51,11.60
2011,09,19,03,52,11.60
2011,09,19,03,53,11.50
2011,09,19,03,54,11.40
2011,09,19,03,55,11.40
2011,09,19,03,56,11.40
2011,09,19,03,57,11.30
2011,09,19,03,58,11.30
2011,09,19,03,59,11.30
2011,09,19,04,00,11.20
2011,09,19,04,01,11.20
2011,09,19,04,02,11.20
2011,09,19,04,03,11.10
2011,09,19,04,04,11.10
2011,09,19,04,05,11.00
2011,09,19,04,06,11.00
2011,09,19,04,07,10.90
2011,09,19,04,08,10.90
2011,09,19,04,09,10.80
2011,09,19,04,10,10.80
2011,09,19,04,11,10.80
2011,09,19,04,12,10.80
2011,09,19,04,13,10.70
2011,09,19,04,14,10.70
2011,09,19,04,15,10.70
2011,09,19,04,16,10.70
2011,09,19,04,17,10.60
2011,09,19,04,18,10.60
2011,09,19,04,19,10.60
2011,09,19,04,20,10.60
2011,09,19,04,21,10.60
2011,09,19,04,22,10.60
2011,09,19,04,23,10.50
2011,09,19,04,24,10.50
2011,09,19,04,25,10.50
2011,09,19,04,26,10.50
2011,09,19,04,27,10.50
2011,09,19,04,28,10.50
2011,09,19,04,29,10.50
2011,09,19,04,30,10.50
2011,09,19,04,31,10.50
2011,09,19,04,32,10.50
2011,09,19,04,33,10.60
2011,09,19,04,34,10.60
2011,09,19,04,35,10.60
2011,09,19,04,36,10.60
2011,09,19,04,37,10.60
2011,09,19,04,38,10.70
2011,09,19,04,39,10.70
2011,09,19,04,40,10.70
2011,09,19,04,41,10.70
2011,09,19,04,42,10.70
2011,09,19,04,43,10.70
2011,09,19,04,44,10.70
2011,09,19,04,45,10.80
2011,09,19,04,46,10.80
2011,09,19,04,47,10.80
2011,09,19,04,48,10.80
2011,09,19,04,49,10.80
2011,09,19,04,50,10.90
2011,09,19,04,51,10.90
2011,09,19,04,52,10.80
2011,09,19,04,53,10.80
2011,09,19,04,54,10.80
2011,09,19,04,55,10.80
2011,09,19,04,56,10.80
2011,09,19,04,57,10.80
2011,09,19,04,58,10.80
2011,09,19,04,59,10.80
2011,09,19,05,00,10.80
2011,09,19,05,01,10.80
2011,09,19,05,02,10.90
2011,09,19,05,03,10.90
2011,09,19,05,04,10.90
2011,09,19,05,05,10.90
2011,09,19,05,06,10.90
2011,09,19,05,07,10.90
2011,09,19,05,08,10.90
2011,09,19,05,09,10.90
2011,09,19,05,10,10.90
2011,09,19,05,11,10.90
2011,09,19,05,12,10.90
2011,09,19,08,18,14.40
2011,09,19,08,19,14.40
2011,09,19,08,20,14.50
2011,09,19,08,21,14.50
2011,09,19,08,22,14.60
2011,09,19,08,23,14.60
2011,09,19,08,24,14.60
2011,09,19,08,25,14.70
2011,09,19,08,26,14.70
2011,09,19,08,27,14.70
2011,09,19,08,28,14.80
2011,09,19,08,29,14.80
2011,09,19,08,30,14.90
2011,09,19,08,31,15.00
2011,09,19,08,32,15.00
2011,09,19,08,33,15.00
2011,09,19,08,34,15.00
2011,09,19,08,35,15.00
2011,09,19,08,36,15.00
2011,09,19,08,37,15.00
2011,09,19,08,38,15.00
2011,09,19,08,39,15.10
2011,09,19,08,40,15.10
2011,09,19,08,41,15.20
2011,09,19,08,42,15.20
2011,09,19,08,43,15.20
2011,09,19,08,44,15.20
2011,09,19,08,45,15.30
2011,09,19,08,46,15.30
2011,09,19,08,47,15.30
2011,09,19,08,48,15.30
2011,09,19,08,49,15.30
2011,09,19,08,50,15.40
2011,09,19,08,51,15.40
2011,09,19,08,52,15.40
2011,09,19,08,53,15.50
2011,09,19,08,54,15.60
2011,09,19,08,55,15.60
2011,09,19,08,56,15.60
2011,09,19,08,57,15.70
2011,09,19,08,58,15.80
2011,09,19,08,59,15.90
2011,09,19,09,00,15.90
2011,09,19,09,01,16.00
2011,09,19,09,02,16.10
2011,09,19,09,03,16.20
2011,09,19,09,04,16.20
2011,09,19,09,05,16.30
2011,09,19,09,06,16.40
2011,09,19,09,07,16.40
2011,09,19,09,08,16.50
2011,09,19,09,09,16.60
2011,09,19,09,10,16.60
2011,09,19,09,11,16.60
2011,09,19,09,12,16.70
2011,09,19,09,13,16.70
2011,09,19,09,14,16.60
2011,09,19,09,15,16.60
2011,09,19,09,16,16.60
2011,09,19,09,17,16.70
2011,09,19,09,18,16.60
2011,09,19,09,19,16.60
2011,09,19,09,20,16.60
2011,09,19,09,21,16.60
2011,09,19,09,22,16.60
2011,09,19,09,23,16.60
2011,09,19,09,24,16.70
2011,09,19,09,25,16.70
2011,09,19,09,26,16.70
2011,09,19,09,27,16.60
2011,09,19,09,28,16.60
2011,09,19,09,29,16.70
2011,09,19,09,30,16.80
2011,09,19,09,31,16.80
2011,09,19,09,32,16.80
2011,09,19,09,33,16.80
2011,09,19,09,34,16.90
2011,09,19,09,35,16.90
2011,09,19,09,36,17.00
2011,09,19,09,37,17.10
2011,09,19,09,38,17.00
2011,09,19,09,39,17.10
2011,09,19,09,40,17.10
2011,09,19,09,41,17.10
2011,09,19,09,42,17.10
2011,09,19,09,43,17.20
2011,09,19,09,44,17.20
2011,09,19,09,45,17.20
2011,09,19,09,46,17.20
2011,09,19,09,47,17.20
2011,09,19,09,48,17.20
2011,09,19,09,49,17.20
2011,09,19,09,50,17.20
2011,09,19,09,51,17.20
2011,09,19,09,52,17.20
2011,09,19,09,53,17.20
2011,09,19,09,54,17.10
2011,09,19,09,55,17.00
2011,09,19,09,56,16.90
2011,09,19,09,57,16.80
2011,09,19,09,58,16.80
2011,09,19,09,59,16.80
2011,09,19,10,00,16.80
2011,09,19,10,01,16.80
2011,09,19,10,02,16.80
2011,09,19,10,03,16.80
2011,09,19,10,04,16.80
2011,09,19,10,05,16.80
2011,09,19,10,06,16.90
2011,09,19,10,07,16.90
2011,09,19,10,08,17.00
2011,09,19,10,09,17.00
2011,09,19,10,10,17.10
2011,09,19,10,11,17.10
2011,09,19,10,12,17.10
2011,09,19,10,13,17.10
2011,09,19,10,14,17.10
2011,09,19,10,15,17.10
2011,09,19,10,16,17.10
2011,09,19,10,17,17.10
2011,09,19,10,18,17.10
2011,09,19,10,19,17.20
2011,09,19,10,20,17.20
2011,09,19,10,21,17.40
2011,09,19,10,22,17.50
2011,09,19,10,23,17.70
2011,09,19,10,24,17.80
2011,09,19,10,25,17.80
2011,09,19,10,26,17.80
2011,09,19,10,27,17.80
2011,09,19,10,28,17.80
2011,09,19,10,29,17.80
2011,09,19,10,30,17.70
2011,09,19,10,31,17.70
2011,09,19,10,32,17.60
2011,09,19,10,33,17.60
2011,09,19,10,34,17.60
2011,09,19,10,35,17.60
2011,09,19,10,36,17.60
2011,09,19,10,37,17.40
2011,09,19,10,38,17.30
2011,09,19,10,39,17.30
2011,09,19,10,40,17.30
2011,09,19,10,41,17.20
2011,09,19,10,42,17.20
2011,09,19,10,43,17.20
2011,09,19,10,44,17.20
2011,09,19,10,45,17.20
2011,09,19,10,46,17.10
2011,09,19,10,47,17.10
2011,09,19,10,48,17.00
2011,09,19,10,49,16.90
2011,09,19,10,50,16.80
2011,09,19,10,51,16.70
2011,09,19,10,52,16.60
2011,09,19,10,53,16.60
2011,09,19,10,54,16.50
2011,09,19,10,55,16.50
2011,09,19,10,56,16.40
2011,09,19,10,57,16.40
2011,09,19,10,58,16.40
2011,09,19,10,59,16.40
2011,09,19,11,00,16.40
2011,09,19,11,01,16.30
2011,09,19,11,02,16.30
2011,09,19,11,03,16.40
2011,09,19,11,04,16.40
2011,09,19,11,05,16.40
2011,09,19,11,06,16.40
2011,09,19,11,07,16.50
2011,09,19,11,08,16.60
2011,09,19,11,09,16.60
2011,09,19,11,10,16.70
2011,09,19,11,11,16.70
2011,09,19,11,12,16.80
2011,09,19,11,13,16.90
2011,09,19,11,14,17.00
2011,09,19,11,15,17.10
2011,09,19,11,16,17.10
2011,09,19,11,17,17.20
2011,09,19,11,18,17.20
2011,09,19,11,19,17.10
2011,09,19,11,20,17.00
2011,09,19,11,21,16.90
2011,09,19,11,22,16.90
2011,09,19,11,23,17.00
2011,09,19,11,24,16.90
2011,09,19,11,25,16.90
2011,09,19,11,26,17.00
2011,09,19,11,27,17.10
2011,09,19,11,28,17.10
2011,09,19,11,29,17.20
2011,09,19,11,30,17.20
2011,09,19,11,31,17.20
2011,09,19,11,32,17.10
2011,09,19,11,33,17.00
2011,09,19,11,34,16.80
2011,09,19,11,35,16.70
2011,09,19,11,36,16.70
2011,09,19,11,37,16.80
2011,09,19,11,38,16.70
2011,09,19,11,39,16.80
2011,09,19,11,40,16.80
2011,09,19,11,41,16.90
2011,09,19,11,42,17.00
2011,09,19,11,43,17.10
2011,09,19,11,44,17.20
2011,09,19,11,45,17.20
2011,09,19,11,46,17.20
2011,09,19,11,47,17.20
2011,09,19,11,48,17.20
2011,09,19,11,49,17.20
2011,09,19,11,50,17.10
2011,09,19,11,51,17.10
2011,09,19,11,52,17.10
2011,09,19,11,53,17.10
2011,09,19,11,54,17.10
2011,09,19,11,55,17.10
2011,09,19,11,56,17.10
2011,09,19,11,57,17.20
2011,09,19,11,58,17.20
2011,09,19,11,59,17.20
2011,09,19,12,00,17.20
2011,09,19,12,01,17.30
2011,09,19,12,02,17.40
2011,09,19,12,03,17.30
2011,09,19,12,04,17.30
2011,09,19,12,05,17.20
2011,09,19,12,06,17.20
2011,09,19,12,07,17.20
2011,09,19,12,08,17.30
2011,09,19,12,09,17.20
2011,09,19,12,10,17.20
2011,09,19,12,11,17.30
2011,09,19,12,12,17.20
2011,09,19,12,13,17.30
2011,09,19,12,14,17.30
2011,09,19,12,15,17.40
2011,09,19,12,16,17.50
2011,09,19,12,17,17.50
2011,09,19,12,18,17.50
2011,09,19,12,19,17.40
2011,09,19,12,20,17.40
2011,09,19,12,21,17.20
2011,09,19,12,22,17.20
2011,09,19,12,23,17.20
2011,09,19,12,24,17.20
2011,09,19,12,25,17.30
2011,09,19,12,26,17.40
2011,09,19,12,27,17.40
2011,09,19,12,28,17.50
2011,09,19,12,29,17.60
2011,09,19,12,30,17.60
2011,09,19,12,31,17.70
2011,09,19,12,32,17.70
2011,09,19,12,33,17.80
2011,09,19,12,34,17.90
2011,09,19,12,35,17.90
2011,09,19,12,36,17.80
2011,09,19,12,37,17.90
2011,09,19,12,38,17.80
2011,09,19,12,39,17.80
2011,09,19,12,40,17.80
2011,09,19,12,41,17.80
2011,09,19,12,42,17.80
2011,09,19,12,43,17.90
2011,09,19,12,44,17.90
2011,09,19,12,45,17.80
2011,09,19,12,46,17.80
2011,09,19,12,47,17.70
2011,09,19,12,48,17.70
2011,09,19,12,49,17.60
2011,09,19,12,50,17.40
2011,09,19,12,51,17.30
2011,09,19,12,52,17.30
2011,09,19,12,53,17.30
2011,09,19,12,54,17.40
2011,09,19,12,55,17.50
2011,09,19,12,56,17.50
2011,09,19,12,57,17.60
2011,09,19,12,58,17.50
2011,09,19,12,59,17.50
2011,09,19,13,00,17.50
2011,09,19,13,01,17.50
2011,09,19,13,02,17.50
2011,09,19,13,03,17.50
2011,09,19,13,04,17.40
2011,09,19,13,05,17.40
2011,09,19,13,06,17.40
2011,09,19,13,07,17.50
2011,09,19,13,08,17.50
2011,09,19,13,09,17.60
2011,09,19,13,10,17.60
2011,09,19,13,11,17.50
2011,09,19,13,12,17.50
2011,09,19,13,13,17.50
2011,09,19,13,14,17.60
2011,09,19,13,15,17.60
2011,09,19,13,16,17.60
2011,09,19,13,17,17.60
2011,09,19,13,18,17.60
2011,09,19,13,19,17.60
2011,09,19,13,20,17.60
2011,09,19,13,21,17.50
2011,09,19,13,22,17.50
2011,09,19,13,23,17.50
2011,09,19,13,24,17.50
2011,09,19,13,25,17.50
2011,09,19,13,26,17.50
2011,09,19,13,27,17.50
2011,09,19,13,28,17.50
2011,09,19,13,29,17.40
2011,09,19,13,30,17.40
2011,09,19,13,31,17.30
2011,09,19,13,32,17.30
2011,09,19,13,33,17.20
2011,09,19,13,34,17.20
2011,09,19,13,35,17.20
2011,09,19,13,36,17.20
2011,09,19,13,37,17.10
2011,09,19,13,38,17.10
2011,09,19,13,39,17.20
2011,09,19,13,40,17.20
2011,09,19,13,41,17.20
2011,09,19,13,42,17.20
2011,09,19,13,43,17.20
2011,09,19,13,44,17.20
2011,09,19,13,45,17.30
2011,09,19,13,46,17.30
2011,09,19,13,47,17.40
2011,09,19,13,48,17.40
2011,09,19,13,49,17.40
2011,09,19,13,50,17.50
2011,09,19,13,51,17.50
2011,09,19,13,52,17.50
2011,09,19,13,53,17.50
2011,09,19,13,54,17.40
2011,09,19,13,55,17.50
2011,09,19,13,56,17.50
2011,09,19,13,57,17.50
2011,09,19,13,58,17.60
2011,09,19,13,59,17.60
2011,09,19,14,00,17.60
2011,09,19,14,01,17.70
2011,09,19,14,02,17.70
2011,09,19,14,03,17.70
2011,09,19,14,04,17.70
2011,09,19,14,05,17.70
2011,09,19,14,06,17.70
2011,09,19,14,07,17.70
2011,09,19,14,08,17.70
2011,09,19,14,09,17.70
2011,09,19,14,10,17.70
2011,09,19,14,11,17.70
2011,09,19,14,12,17.80
2011,09,19,14,13,17.80
2011,09,19,14,14,17.80
2011,09,19,14,15,17.80
2011,09,19,14,16,17.80
2011,09,19,14,17,17.80
2011,09,19,14,18,17.80
2011,09,19,14,19,17.80
2011,09,19,14,20,17.80
2011,09,19,14,21,18.00
2011,09,19,14,22,18.00
2011,09,19,14,23,18.10
2011,09,19,14,24,18.10
2011,09,19,14,25,18.10
2011,09,19,14,26,18.10
2011,09,19,14,27,18.20
2011,09,19,14,28,18.20
2011,09,19,14,29,18.30
2011,09,19,14,30,18.30
2011,09,19,14,31,18.30
2011,09,19,14,32,18.30
2011,09,19,14,33,18.20
2011,09,19,14,34,18.20
2011,09,19,14,35,18.10
2011,09,19,14,36,18.10
2011,09,19,14,37,18.10
2011,09,19,14,38,18.10
2011,09,19,14,39,18.20
2011,09,19,14,40,18.20
2011,09,19,14,41,18.30
2011,09,19,14,42,18.30
2011,09,19,14,43,18.30
2011,09,19,14,44,18.30
2011,09,19,14,45,18.30
2011,09,19,14,46,18.30
2011,09,19,14,47,18.30
2011,09,19,14,48,18.30
2011,09,19,14,49,18.30
2011,09,19,14,50,18.40
2011,09,19,14,51,18.40
2011,09,19,14,52,18.30
2011,09,19,14,53,18.30
2011,09,19,14,54,18.30
2011,09,19,14,55,18.30
2011,09,19,14,56,18.30
2011,09,19,14,57,18.30
2011,09,19,14,58,18.30
2011,09,19,14,59,18.30
2011,09,19,15,00,18.40
2011,09,19,15,01,18.40
2011,09,19,15,02,18.40
2011,09,19,15,03,18.40
2011,09,19,15,04,18.50
2011,09,19,15,05,18.50
2011,09,19,15,06,18.60
2011,09,19,15,07,18.60
2011,09,19,15,08,18.60
2011,09,19,15,09,18.60
2011,09,19,15,10,18.60
2011,09,19,15,11,18.60
2011,09,19,15,12,18.60
2011,09,19,15,13,18.60
2011,09,19,15,14,18.60
2011,09,19,15,15,18.50
2011,09,19,15,16,18.50
2011,09,19,15,17,18.50
2011,09,19,15,18,18.50
2011,09,19,15,19,18.50
2011,09,19,15,20,18.40
2011,09,19,15,21,18.40
2011,09,19,15,22,18.40
2011,09,19,15,23,18.40
2011,09,19,15,24,18.40
2011,09,19,15,25,18.50
2011,09,19,15,26,18.50
2011,09,19,15,27,18.60
2011,09,19,15,28,18.60
2011,09,19,15,29,18.70
2011,09,19,15,30,18.50
2011,09,19,15,31,18.40
2011,09,19,15,32,18.30
2011,09,19,15,33,18.30
2011,09,19,15,34,18.20
2011,09,19,15,35,18.20
2011,09,19,15,36,18.20
2011,09,19,15,37,18.20
2011,09,19,15,38,18.30
2011,09,19,15,39,18.30
2011,09,19,15,40,18.40
2011,09,19,15,41,18.40
2011,09,19,15,42,18.50
2011,09,19,15,43,18.50
2011,09,19,15,44,18.60
2011,09,19,15,45,18.60
2011,09,19,15,46,18.70
2011,09,19,15,47,18.70
2011,09,19,15,48,18.70
2011,09,19,15,49,18.70
2011,09,19,15,50,18.70
2011,09,19,15,51,18.70
2011,09,19,15,52,18.50
2011,09,19,15,53,18.30
2011,09,19,15,54,18.10
2011,09,19,15,55,18.00
2011,09,19,15,56,17.90
2011,09,19,15,57,17.80
2011,09,19,15,58,17.80
2011,09,19,15,59,17.80
2011,09,19,16,00,17.90
2011,09,19,16,01,18.00
2011,09,19,16,02,18.10
2011,09,19,16,03,18.20
2011,09,19,16,04,18.20
2011,09,19,16,05,18.20
2011,09,19,16,06,18.30
2011,09,19,16,07,18.30
2011,09,19,16,08,18.40
2011,09,19,16,09,18.40
2011,09,19,16,10,18.50
2011,09,19,16,11,18.50
2011,09,19,16,12,18.50
2011,09,19,16,13,18.50
2011,09,19,16,14,18.40
2011,09,19,16,15,18.30
2011,09,19,16,16,18.30
2011,09,19,16,17,18.20
2011,09,19,16,18,18.20
2011,09,19,16,19,18.20
2011,09,19,16,20,18.30
2011,09,19,16,21,18.30
2011,09,19,16,22,18.20
2011,09,19,16,23,18.20
2011,09,19,16,24,18.10
2011,09,19,16,25,18.10
2011,09,19,16,26,18.10
2011,09,19,16,27,18.10
2011,09,19,16,28,18.10
2011,09,19,16,29,18.10
2011,09,19,16,30,18.00
2011,09,19,16,31,18.00
2011,09,19,16,32,17.90
2011,09,19,16,33,17.90
2011,09,19,16,34,17.90
2011,09,19,16,35,17.90
2011,09,19,16,36,17.90
2011,09,19,16,37,17.90
2011,09,19,16,38,18.00
2011,09,19,16,39,18.00
2011,09,19,16,40,18.00
2011,09,19,16,41,18.00
2011,09,19,16,42,18.00
2011,09,19,16,43,18.00
2011,09,19,16,44,18.00
2011,09,19,16,45,18.10
2011,09,19,16,46,18.10
2011,09,19,16,47,18.20
2011,09,19,16,48,18.20
2011,09,19,16,49,18.20
2011,09,19,16,50,18.10
2011,09,19,16,51,18.00
2011,09,19,16,52,17.80
2011,09,19,16,53,17.60
2011,09,19,16,54,17.50
2011,09,19,16,55,17.30
2011,09,19,16,56,17.20
2011,09,19,16,57,17.10
2011,09,19,16,58,17.00
2011,09,19,16,59,16.90
2011,09,19,17,00,16.90
2011,09,19,17,01,16.90
2011,09,19,17,02,16.90
2011,09,19,17,03,16.80
2011,09,19,17,04,16.80
2011,09,19,17,05,16.80
2011,09,19,17,06,16.80
2011,09,19,17,07,16.80
2011,09,19,17,08,16.80
2011,09,19,17,09,16.90
2011,09,19,17,10,16.90
2011,09,19,17,11,17.00
2011,09,19,17,12,17.10
2011,09,19,17,13,17.10
2011,09,19,17,14,17.20
2011,09,19,17,15,17.20
2011,09,19,17,16,17.20
2011,09,19,17,17,17.30
2011,09,19,17,18,17.30
2011,09,19,17,19,17.30
2011,09,19,17,20,17.30
2011,09,19,17,21,17.30
2011,09,19,17,22,17.30
2011,09,19,17,23,17.20
2011,09,19,17,24,17.30
2011,09,19,17,25,17.30
2011,09,19,17,26,17.20
2011,09,19,17,27,17.20
2011,09,19,17,28,17.10
2011,09,19,17,29,17.10
2011,09,19,17,30,17.00
2011,09,19,17,31,17.00
2011,09,19,17,32,16.90
2011,09,19,17,33,16.80
2011,09,19,17,34,16.80
2011,09,19,17,35,16.70
2011,09,19,17,36,16.70
2011,09,19,17,37,16.60
2011,09,19,17,38,16.60
2011,09,19,17,39,16.50
2011,09,19,17,40,16.50
2011,09,19,17,41,16.40
2011,09,19,17,42,16.40
2011,09,19,17,43,16.30
2011,09,19,17,44,16.30
2011,09,19,17,45,16.30
2011,09,19,17,46,16.30
2011,09,19,17,47,16.30
2011,09,19,17,48,16.30
2011,09,19,17,49,16.30
2011,09,19,17,50,16.20
2011,09,19,17,51,16.20
2011,09,19,17,52,16.20
2011,09,19,17,53,16.20
2011,09,19,17,54,16.20
2011,09,19,17,55,16.20
2011,09,19,17,56,16.20
2011,09,19,17,57,16.20
2011,09,19,17,58,16.20
2011,09,19,17,59,16.20
2011,09,19,18,00,16.20
2011,09,19,18,01,16.20
2011,09,19,18,02,16.20
2011,09,19,18,03,16.30
2011,09,19,18,04,16.30
2011,09,19,18,05,16.30
2011,09,19,18,06,16.30
2011,09,19,18,07,16.30
2011,09,19,18,08,16.30
2011,09,19,18,09,16.30
2011,09,19,18,10,16.30
2011,09,19,18,11,16.30
2011,09,19,18,12,16.30
2011,09,19,18,13,16.30
2011,09,19,18,14,16.30
2011,09,19,18,15,16.30
2011,09,19,18,16,16.30
2011,09,19,18,17,16.30
2011,09,19,18,18,16.20
2011,09,19,18,19,16.20
2011,09,19,18,20,16.20
2011,09,19,18,21,16.20
2011,09,19,18,22,16.20
2011,09,19,18,23,16.20
2011,09,19,18,24,16.10
2011,09,19,18,25,16.10
2011,09,19,18,26,16.00
2011,09,19,18,27,16.00
2011,09,19,18,28,16.00
2011,09,19,18,29,15.90
2011,09,19,18,30,15.90
2011,09,19,18,31,15.90
2011,09,19,18,32,15.90
2011,09,19,18,33,15.90
2011,09,19,18,34,15.90
2011,09,19,18,35,15.80
2011,09,19,18,36,15.80
2011,09,19,18,37,15.80
2011,09,19,18,38,15.80
2011,09,19,18,39,15.70
2011,09,19,18,40,15.70
2011,09,19,18,41,15.70
2011,09,19,18,42,15.60
2011,09,19,18,43,15.60
2011,09,19,18,44,15.50
2011,09,19,18,45,15.50
2011,09,19,18,46,15.40
2011,09,19,18,47,15.40
2011,09,19,18,48,15.40
2011,09,19,18,49,15.40
2011,09,19,18,50,15.30
2011,09,19,18,51,15.30
2011,09,19,18,52,15.30
2011,09,19,18,53,15.20
2011,09,19,18,54,15.20
2011,09,19,18,55,15.20
2011,09,19,18,56,15.10
2011,09,19,18,57,15.10
2011,09,19,18,58,15.00
2011,09,19,18,59,15.00
2011,09,19,19,00,15.00
2011,09,19,19,01,15.00
2011,09,19,19,02,15.00
2011,09,19,19,03,15.00
2011,09,19,19,04,15.00
2011,09,19,19,05,14.90
2011,09,19,19,06,14.80
2011,09,19,19,07,14.70
2011,09,19,19,08,14.70
2011,09,19,19,09,14.60
2011,09,19,19,10,14.50
2011,09,19,19,11,14.50
2011,09,19,19,12,14.40
2011,09,19,19,13,14.40
2011,09,19,19,14,14.30
2011,09,19,19,15,14.30
2011,09,19,19,16,14.30
2011,09,19,19,17,14.20
2011,09,19,19,18,14.20
2011,09,19,19,19,14.10
2011,09,19,19,20,14.10
2011,09,19,19,21,14.00
2011,09,19,19,22,14.00
2011,09,19,19,23,13.90
2011,09,19,19,24,13.90
2011,09,19,19,25,13.80
2011,09,19,19,26,13.80
2011,09,19,19,27,13.80
2011,09,19,19,28,13.80
2011,09,19,19,29,13.70
2011,09,19,19,30,13.70
2011,09,19,19,31,13.70
2011,09,19,19,32,13.60
2011,09,19,19,33,13.60
2011,09,19,19,34,13.50
2011,09,19,19,35,13.50
2011,09,19,19,36,13.40
2011,09,19,19,37,13.40
2011,09,19,19,38,13.30
2011,09,19,19,39,13.30
2011,09,19,19,40,13.20
2011,09,19,19,41,13.20
2011,09,19,19,42,13.10
2011,09,19,19,43,13.00
2011,09,19,19,44,13.00
2011,09,19,19,45,12.90
2011,09,19,19,46,12.90
2011,09,19,19,47,12.80
2011,09,19,19,48,12.80
2011,09,19,19,49,12.80
2011,09,19,19,50,12.70
2011,09,19,19,51,12.70
2011,09,19,19,52,12.60
2011,09,19,19,53,12.60
2011,09,19,19,54,12.60
2011,09,19,19,55,12.50
2011,09,19,19,56,12.50
2011,09,19,19,57,12.50
2011,09,19,19,58,12.40
2011,09,19,19,59,12.40
2011,09,19,20,00,12.40
2011,09,19,20,01,12.30
2011,09,19,20,02,12.30
2011,09,19,20,03,12.30
2011,09,19,20,04,12.20
2011,09,19,20,05,12.20
2011,09,19,20,06,12.20
2011,09,19,20,07,12.20
2011,09,19,20,08,12.10
2011,09,19,20,09,12.10
2011,09,19,20,10,12.10
2011,09,19,20,11,12.10
2011,09,19,20,12,12.10
2011,09,19,20,13,12.10
2011,09,19,20,14,12.10
2011,09,19,20,15,12.00
2011,09,19,20,16,12.00
2011,09,19,20,17,12.00
2011,09,19,20,18,12.00
2011,09,19,20,19,12.00
2011,09,19,20,20,11.90
2011,09,19,20,21,11.90
2011,09,19,20,22,11.90
2011,09,19,20,23,11.80
2011,09,19,20,24,11.80